TimePDT,TemperatureF,Dew PointF,Humidity,Sea Level PressureIn,VisibilityMPH,Wind Direction,Wind SpeedMPH,Gust SpeedMPH,PrecipitationIn,Events,Conditions,WindDirDegrees,DateUTC
12:53 AM,42.1,37.9,85,29.82,10.0,Calm,Calm,-,0.00,Rain,Light Rain,0,2013-04-07 07:53:00
1:53 AM,39.9,39.0,97,29.80,10.0,WSW,4.6,-,0.00,,Scattered Clouds,240,2013-04-07 08:53:00
2:04 AM,39.2,39.2,100,29.78,10.0,West,3.5,-,N/A,,Mostly Cloudy,260,2013-04-07 09:04:00
2:42 AM,41.0,35.6,81,29.76,10.0,SE,12.7,-,N/A,,Mostly Cloudy,140,2013-04-07 09:42:00
2:53 AM,41.0,36.0,82,29.77,10.0,SE,16.1,-,0.00,Rain,Light Rain,130,2013-04-07 09:53:00
3:53 AM,41.0,37.0,86,29.73,10.0,ESE,8.1,-,0.01,,Overcast,110,2013-04-07 10:53:00
4:53 AM,41.0,36.0,82,29.70,10.0,ESE,13.8,-,N/A,,Overcast,110,2013-04-07 11:53:00
5:53 AM,41.0,37.0,86,29.68,10.0,SSE,13.8,-,0.00,,Overcast,150,2013-04-07 12:53:00
6:53 AM,41.0,37.9,89,29.68,10.0,ESE,9.2,-,0.01,Rain,Light Rain,120,2013-04-07 13:53:00
7:53 AM,44.1,39.0,82,29.66,10.0,East,12.7,-,0.00,,Overcast,100,2013-04-07 14:53:00
8:49 AM,42.8,37.4,81,29.66,3.0,South,15.0,34.5,0.02,Rain,Rain,190,2013-04-07 15:49:00
8:53 AM,43.0,37.0,80,29.67,6.0,South,12.7,-,0.03,Rain,Light Rain,170,2013-04-07 15:53:00
9:53 AM,50.0,37.0,61,29.66,10.0,Variable,6.9,-,0.00,,Mostly Cloudy,0,2013-04-07 16:53:00
10:53 AM,52.0,32.0,47,29.67,10.0,WSW,10.4,20.7,N/A,,Mostly Cloudy,240,2013-04-07 17:53:00
11:53 AM,48.9,30.9,50,29.70,10.0,WSW,8.1,16.1,0.00,,Clear,240,2013-04-07 18:53:00
12:53 PM,48.9,32.0,52,29.69,10.0,SSW,16.1,-,N/A,,Mostly Cloudy,200,2013-04-07 19:53:00
1:00 PM,50.0,33.8,54,29.69,10.0,South,16.1,-,N/A,,Overcast,190,2013-04-07 20:00:00
1:53 PM,41.0,33.1,73,29.75,10.0,West,24.2,41.4,0.00,Rain,Light Rain,270,2013-04-07 20:53:00
2:53 PM,48.0,32.0,54,29.72,10.0,WNW,15.0,18.4,0.00,,Mostly Cloudy,290,2013-04-07 21:53:00
3:53 PM,46.9,28.9,50,29.72,10.0,NNW,16.1,-,N/A,,Unknown,340,2013-04-07 22:53:00
4:01 PM,46.4,26.6,46,29.72,10.0,NW,13.8,-,N/A,,Overcast,320,2013-04-07 23:01:00
4:53 PM,42.1,34.0,73,29.75,10.0,WNW,4.6,-,0.01,,Overcast,290,2013-04-07 23:53:00
5:53 PM,45.0,27.0,49,29.75,10.0,WNW,15.0,-,N/A,,Overcast,300,2013-04-08 00:53:00
6:53 PM,37.0,32.0,82,29.78,10.0,NW,11.5,20.7,0.01,,Mostly Cloudy,310,2013-04-08 01:53:00
7:53 PM,37.0,30.0,76,29.79,10.0,WNW,17.3,21.9,N/A,,Mostly Cloudy,300,2013-04-08 02:53:00
8:53 PM,34.0,30.9,89,29.80,10.0,Calm,Calm,-,0.00,,Clear,0,2013-04-08 03:53:00
9:53 PM,34.0,30.0,85,29.79,10.0,Calm,Calm,-,N/A,,Clear,0,2013-04-08 04:53:00
10:53 PM,33.1,30.0,89,29.79,10.0,SSW,4.6,-,N/A,,Clear,210,2013-04-08 05:53:00
11:53 PM,32.0,28.9,88,29.79,10.0,WNW,6.9,-,N/A,,Partly Cloudy,290,2013-04-08 06:53:00